Weather History for Klamath Falls, OR

Change the Weather History Date:

Sunday, November 11, 2012

  Actual Average Record
Temperature  
Mean Temperature 26 °F 37 °F  
Max Temperature 37 °F 48 °F 72 °F (1996)
Min Temperature 14 °F 26 °F 3 °F (1985)
Degree Days  
Heating Degree Days 39 28  
Month to date heating degree days 276 289  
Since 1 July heating degree days 979 1205  
Cooling Degree Days 0 0  
Month to date cooling degree days 0 0  
Year to date cooling degree days 177 169  
Moisture  
Dew Point 21 °F    
Average Humidity 75    
Maximum Humidity 92    
Minimum Humidity 52    
Precipitation  
Precipitation T in 0.06 in 1.14 in (1937)
Month to date precipitation 0.03 0.74  
Year to date precipitation 6.71 12.06  
Sea Level Pressure  
Sea Level Pressure 30.33 in    
Wind  
Wind Speed 4 mph (SSE)    
Max Wind Speed 12 mph    
Max Gust Speed 14 mph    
Visibility 9 miles    
Events Snow    
T = Trace of Precipitation, MM = Missing Value Source: NWS Daily Summary

Daily Weather History Graph

Daily Weather History Graph

Search for Another Location

Airport:

Trip Planner

Search our weather history database for the weather conditions in past years. The results will help you decide how hot, cold, wet, or windy it might be!

Date:

Astronomy

Nov. 11, 2012 Rise Set
Actual Time 6:52 AM PST 4:48 PM PST
Civil Twilight 6:23 AM PST 5:18 PM PST
Nautical Twilight 5:49 AM PST 5:52 PM PST
Astronomical Twilight 5:16 AM PST 6:24 PM PST
Moon 4:11 AM PST (11/11) 3:17 PM PST (11/11)
Length of Visible Light 10h 55m
Length of Day
9h 55m
Waning Crescent, 6% of the Moon is Illuminated
Nov 11
Waning Crescent
Nov 13
New
Nov 20
First Quarter
Nov 28
Full
Dec 6
Last Quarter

Hourly Weather History & Observations

Time (PST) Temp. Windchill Dew Point Humidity Pressure Visibility Wind Dir Wind Speed Gust Speed Precip Events Conditions
12:53 AM 17.1 °F - 12.9 °F 84% 30.27 in 10.0 mi Calm Calm - N/A   Clear
1:53 AM 18.0 °F - 15.1 °F 88% 30.27 in 10.0 mi Calm Calm - N/A   Clear
2:53 AM 15.1 °F - 12.9 °F 91% 30.29 in 10.0 mi Calm Calm - N/A   Partly Cloudy
3:53 AM 17.1 °F - 12.9 °F 84% 30.28 in 9.0 mi Calm Calm - N/A   Clear
4:53 AM 16.0 °F 8.8 °F 12.9 °F 88% 30.31 in 10.0 mi SE 4.6 mph - N/A   Clear
5:53 AM 19.0 °F 12.3 °F 15.1 °F 85% 30.33 in 10.0 mi South 4.6 mph - N/A   Clear
6:00 AM 17.6 °F 9.3 °F 15.8 °F 93% 30.23 in 10.0 mi South 5.8 mph - N/A   Partly Cloudy
6:53 AM 19.0 °F 11.1 °F 16.0 °F 88% 30.35 in 10.0 mi SSE 5.8 mph - N/A   Mostly Cloudy
8:53 AM 24.1 °F 17.0 °F 19.9 °F 84% 30.38 in 10.0 mi South 5.8 mph - N/A   Mostly Cloudy
9:53 AM 28.9 °F 22.8 °F 23.0 °F 78% 30.39 in 10.0 mi SE 5.8 mph - N/A   Mostly Cloudy
10:53 AM 32.0 °F 26.4 °F 23.0 °F 69% 30.38 in 10.0 mi Variable 5.8 mph - N/A   Mostly Cloudy
11:53 AM 34.0 °F 31.0 °F 21.9 °F 61% 30.36 in 10.0 mi Variable 3.5 mph - N/A   Overcast
12:53 PM 35.1 °F 31.0 °F 21.0 °F 57% 30.36 in 10.0 mi SW 4.6 mph - N/A   Overcast
1:53 PM 36.0 °F 31.1 °F 19.9 °F 52% 30.35 in 10.0 mi South 5.8 mph - N/A   Overcast
2:53 PM 36.0 °F 29.6 °F 21.0 °F 55% 30.36 in 10.0 mi South 8.1 mph - N/A   Overcast
3:46 PM 35.6 °F 28.0 °F 21.2 °F 56% 30.28 in 10.0 mi South 10.4 mph - 0.00 in Snow Light Snow
3:53 PM 36.0 °F 29.6 °F 23.0 °F 59% 30.36 in 9.0 mi South 8.1 mph - 0.00 in Snow Light Snow
5:53 PM 34.0 °F 29.8 °F 27.0 °F 75% 30.37 in 7.0 mi ENE 4.6 mph - 0.00 in Snow Light Snow
6:28 PM 33.8 °F 29.6 °F 26.6 °F 75% 30.29 in 7.0 mi East 4.6 mph - 0.00 in   Overcast
7:53 PM 35.1 °F 31.0 °F 26.1 °F 70% 30.36 in 7.0 mi East 4.6 mph - N/A   Overcast
8:53 PM 34.0 °F 31.0 °F 27.0 °F 75% 30.36 in 7.0 mi East 3.5 mph - N/A   Overcast
9:53 PM 33.8 °F - 26.6 °F 75% 30.34 in 7.0 mi Calm Calm - N/A   Overcast
10:53 PM 34.0 °F 31.0 °F 26.1 °F 73% 30.33 in 9.0 mi East 3.5 mph - N/A   Overcast
11:53 PM 34.0 °F - 27.0 °F 75% 30.32 in 10.0 mi Calm Calm - N/A   Overcast